Regional Weather Roundup
Issued by NWS

Home | Current Version | Previous Version | Graphics & Text | Print | Product List | Glossary On
Versions: 1 2 3 4 5 6 7 8 9 10 11 12 13 14 15 16 17 18 19 20 21 22 23 24 25 26 27 28 29 30 31 32 33 34 35 36 37 38 39 40 41 42 43 44 45 46 47 48 49 50
000
ASUS43 KDMX 280506
RWRIA

WEATHER ROUNDUP FOR IOWA
NATIONAL WEATHER SERVICE DES MOINES IA
1200 AM CDT FRI APR 28 2017

NOTE: "FAIR" INDICATES FEW OR NO CLOUDS BELOW 12,000 FEET WITH NO
SIGNIFICANT WEATHER AND/OR OBSTRUCTIONS TO VISIBILITY.

* - THESE STATIONS ARE NOT NWS STATIONS...THUS NOT UNDER NWS
QUALITY CONTROL.  THEY ALSO DO NOT REPORT WEATHER SUCH
AS PRECIPITATION OR FOG.

IAZ001>003-012>014-020>022-031>034-043>046-280600-
   NORTHWEST IOWA

CITY           SKY/WX    TMP DP  RH WIND       PRES   REMARKS
CARROLL *      CLOUDY    37  34  87 NE6       29.82F WCI  33
CHEROKEE *     CLEAR     33  32  94 CALM      29.83R
DENISON *      CLOUDY    39  34  81 E6        29.82S WCI  35
LE MARS *      CLEAR     39  34  81 NE7       29.83R WCI  34
ORANGE CITY *  CLEAR     36  32  87 E12       29.82R WCI  27
SHELDON *      CLEAR     32  30  93 NE12      29.83R WCI  23
SIOUX CITY     CLEAR     38  32  79 E7        29.80R WCI  33
SPENCER        CLEAR     32  28  85 NE9       29.85R WCI  24
STORM LAKE *   CLOUDY    34  30  86 NE9       29.83R WCI  26
$$

IAZ055>058-069>071-079>083-090>094-280600-
   SOUTHWEST IOWA

CITY           SKY/WX    TMP DP  RH WIND       PRES   REMARKS
ATLANTIC *     CLOUDY    46  36  66 NE8       29.79S
AUDUBON *      PTCLDY    39  34  81 NE6       29.82S WCI  35
CLARINDA *     CLOUDY    52  37  58 CALM      29.80S
COUNCIL BLFS * PTCLDY    48  36  61 E7        29.77S
CRESTON *      CLOUDY    46  37  71 NE13      29.80F
HARLAN  *      CLOUDY    45  36  70 E9        29.82S
LAMONI         CLOUDY    50  39  66 NE8       29.78F
RED OAK *      CLOUDY    50  37  62 NE7       29.78S
SHENANDOAH *   CLOUDY    52  37  58 E5        29.78S
$$

IAZ047>049-059>061-072>074-084-280600-
   CENTRAL IOWA

CITY           SKY/WX    TMP DP  RH WIND       PRES   REMARKS
AMES           CLOUDY    37  32  82 N3        29.84S
ANKENY *       PTCLDY    39  32  75 NE8       29.86R WCI  34
BOONE *        CLOUDY    36  32  87 E6        29.83S WCI  31
CHARITON *     MOCLDY    45  36  70 NE10      29.82R
DES MOINES     CLOUDY    44  32  62 NE10      29.84R
GRINNELL*      PTCLDY    38  32  79 N6        29.86R WCI  33
KNOXVILLE *    MOCLDY    43  34  70 NE7       29.82S
MARSHALLTOWN   PTCLDY    34  29  82 N7        29.84S WCI  28
NEWTON *       CLOUDY    39  32  75 NE8       29.84S WCI  34
PELLA *        CLOUDY    41  34  75 CALM      29.85S
PERRY *          N/A     40  32  71 NE7       29.84R
$$

IAZ004>006-015-016-023>025-035-036-280600-
   NORTH CENTRAL IOWA

CITY           SKY/WX    TMP DP  RH WIND       PRES   REMARKS
ALGONA *       CLEAR     32  28  86 NE6       29.85S WCI  26
CLARION *      CLEAR     34  32  93 N8        29.85R WCI  27
ESTHERVILLE    CLEAR     30  28  92 N5        29.85S WCI  25
FORT DODGE *   CLOUDY    36  28  75 N9        29.85R WCI  29
MASON CITY     CLOUDY    33  28  81 NW8       29.87R WCI  26
FOREST CITY *  CLOUDY    34  25  69 N9        29.85S WCI  26
WEBSTER CITY * CLOUDY    34  28  80 N7        29.82S WCI  28
IOWA FALLS *     N/A     35  30  82 N3        29.85R
$$

IAZ007>011-017>019-026>030-037>042-050>054-066-280600-
   NORTHEAST IOWA

CITY           SKY/WX    TMP DP  RH WIND       PRES   REMARKS
CEDAR RAPIDS   PTCLDY    36  33  89 CALM      29.85R
CHARLES CITY * MOCLDY    36  28  75 NW10G16   29.85S WCI  28
CLINTON *      CLEAR     37  34  89 CALM      29.88R
DECORAH *      CLOUDY    36  28  75 VRB6G17   29.82R WCI  31
DUBUQUE        CLEAR     34  30  85 SW5       29.84R WCI  30
MONTICELLO *   CLEAR     34  32  93 S3        29.85R
WATERLOO       CLEAR     35  29  78 CALM      29.85R
$$

IAZ064-065-067-068-078-280600-
   EAST CENTRAL IOWA

CITY           SKY/WX    TMP DP  RH WIND       PRES   REMARKS
DAVENPORT      PTCLDY    37  34  89 CALM      29.87R
IOWA CITY      CLOUDY    39  34  82 CALM      29.87S
MT. PLEASANT * CLOUDY    46  42  86 N9        29.85S
MUSCATINE *    CLOUDY    41  37  87 CALM      29.88R
QUAD CITIES    CLOUDY    38  36  92 CALM      29.87R
$$

IAZ062-063-075>077-085>089-095>099-280600-
   SOUTHEAST IOWA

CITY           SKY/WX    TMP DP  RH WIND       PRES   REMARKS
BURLINGTON     CLOUDY    49  45  86 S3        29.84S
FAIRFIELD *    CLOUDY    43  37  81 NE10      29.84S
FORT MADISON * CLOUDY    50  45  81 S6        29.84F
KEOKUK *       PTCLDY    52  46  82 S5        29.83S
OSKALOOSA *      N/A     40  34  80 NE8       29.85S WCI  34
CENTERVILLE *  MOCLDY    50  41  71 CALM      29.81F
OTTUMWA        CLOUDY    43  38  82 NE9       29.84R
WASHINGTON *   PTCLDY    39  36  87 NE7       29.87R WCI  34
$$

ABBREVIATIONS USED IN REMARKS
   TC - TEMPERATURES IN CELSIUS
  WCI - WIND CHILL INDEX
   HX - HEAT INDEX
  VSB - VISIBILITY
$$





USA.gov is the U.S. government's official web portal to all federal, state and local government web resources and services.